Time,TemperatureF,DewpointF,PressureIn,WindDirection,WindDirectionDegrees,WindSpeedMPH,WindSpeedGustMPH,Humidity,HourlyPrecipIn,Conditions,Clouds,dailyrainin,SoftwareType,DateUTC
2013-09-02 00:00:00,76.6,75.7,29.94,SSW,195,0.0,1.0,97,0.00,,,0.00,Wunderground v.1.15,2013-09-02 04:00:00,
2013-09-02 00:02:00,76.6,75.7,29.94,SSW,195,0.0,1.0,97,0.00,,,0.00,Wunderground v.1.15,2013-09-02 04:02:00,
2013-09-02 00:04:00,76.7,75.8,29.95,SSW,195,0.0,1.0,97,0.00,,,0.00,Wunderground v.1.15,2013-09-02 04:04:00,
2013-09-02 00:10:00,76.6,75.7,29.95,SSW,195,0.0,1.0,97,0.00,,,0.00,Wunderground v.1.15,2013-09-02 04:10:00,
2013-09-02 00:14:00,76.5,75.6,29.95,SSW,195,0.0,1.0,97,0.00,,,0.00,Wunderground v.1.15,2013-09-02 04:14:00,
2013-09-02 00:20:00,76.3,75.4,29.94,SSW,195,0.0,1.0,97,0.00,,,0.00,Wunderground v.1.15,2013-09-02 04:20:00,
2013-09-02 00:26:00,76.2,75.3,29.94,SSW,195,0.0,1.0,97,0.00,,,0.00,Wunderground v.1.15,2013-09-02 04:26:00,
2013-09-02 00:32:00,76.3,75.4,29.94,SSW,195,0.0,1.0,97,0.00,,,0.00,Wunderground v.1.15,2013-09-02 04:32:00,
2013-09-02 00:38:00,76.2,75.3,29.94,SSW,195,0.0,1.0,97,0.00,,,0.00,Wunderground v.1.15,2013-09-02 04:38:00,
2013-09-02 00:44:00,76.0,75.1,29.94,SSW,195,0.0,1.0,97,0.00,,,0.00,Wunderground v.1.15,2013-09-02 04:44:00,
2013-09-02 00:50:00,76.1,75.5,29.94,SSW,195,0.0,1.0,98,0.00,,,0.00,Wunderground v.1.15,2013-09-02 04:50:00,
2013-09-02 00:56:00,75.9,75.0,29.94,SSW,195,0.0,1.0,97,0.00,,,0.00,Wunderground v.1.15,2013-09-02 04:56:00,
2013-09-02 01:02:00,75.9,75.3,29.93,SSW,195,0.0,1.0,98,0.00,,,0.00,Wunderground v.1.15,2013-09-02 05:02:00,
2013-09-02 01:08:00,75.8,74.9,29.93,SSW,195,0.0,1.0,97,0.00,,,0.00,Wunderground v.1.15,2013-09-02 05:08:00,
2013-09-02 01:16:00,76.0,75.4,29.94,SSW,195,0.0,1.0,98,0.00,,,0.00,Wunderground v.1.15,2013-09-02 05:16:00,
2013-09-02 01:22:00,75.8,75.2,29.93,SSW,195,0.0,1.0,98,0.00,,,0.00,Wunderground v.1.15,2013-09-02 05:22:00,
2013-09-02 01:28:00,75.7,75.1,29.93,SSW,195,0.0,1.0,98,0.00,,,0.00,Wunderground v.1.15,2013-09-02 05:28:00,
2013-09-02 01:34:00,75.7,75.1,29.93,SSW,195,0.0,1.0,98,0.00,,,0.00,Wunderground v.1.15,2013-09-02 05:34:00,
2013-09-02 01:40:00,75.7,75.1,29.92,SSW,195,0.0,1.0,98,0.00,,,0.00,Wunderground v.1.15,2013-09-02 05:40:00,
2013-09-02 01:46:00,75.6,75.0,29.92,SSW,195,0.0,1.0,98,0.00,,,0.00,Wunderground v.1.15,2013-09-02 05:46:00,
2013-09-02 01:52:00,75.5,74.9,29.92,SSW,195,0.0,1.0,98,0.00,,,0.00,Wunderground v.1.15,2013-09-02 05:52:00,
2013-09-02 01:58:00,75.5,74.9,29.92,SSW,195,0.0,1.0,98,0.00,,,0.00,Wunderground v.1.15,2013-09-02 05:58:00,
2013-09-02 02:04:00,75.5,74.9,29.92,SSW,195,0.0,1.0,98,0.00,,,0.00,Wunderground v.1.15,2013-09-02 06:04:00,
2013-09-02 02:10:00,75.4,74.8,29.92,SSW,195,0.0,1.0,98,0.00,,,0.00,Wunderground v.1.15,2013-09-02 06:10:00,
2013-09-02 02:16:00,75.4,74.8,29.92,SSW,195,0.0,1.0,98,0.00,,,0.00,Wunderground v.1.15,2013-09-02 06:16:00,
2013-09-02 02:22:00,75.4,74.8,29.91,SSW,195,0.0,1.0,98,0.00,,,0.00,Wunderground v.1.15,2013-09-02 06:22:00,
2013-09-02 02:28:00,75.4,74.8,29.91,SSW,195,0.0,1.0,98,0.00,,,0.00,Wunderground v.1.15,2013-09-02 06:28:00,
2013-09-02 02:34:00,75.5,74.9,29.91,SSW,195,0.0,1.0,98,0.00,,,0.00,Wunderground v.1.15,2013-09-02 06:34:00,
2013-09-02 02:40:00,75.6,75.0,29.91,SSW,195,0.0,1.0,98,0.00,,,0.00,Wunderground v.1.15,2013-09-02 06:40:00,
2013-09-02 02:46:00,75.8,75.5,29.91,SSW,195,0.0,1.0,99,0.00,,,0.00,Wunderground v.1.15,2013-09-02 06:46:00,
2013-09-02 02:52:00,75.9,75.6,29.91,SSW,195,0.0,1.0,99,0.00,,,0.00,Wunderground v.1.15,2013-09-02 06:52:00,
2013-09-02 02:58:00,75.8,75.2,29.90,SSW,195,0.0,1.0,98,0.00,,,0.00,Wunderground v.1.15,2013-09-02 06:58:00,
2013-09-02 03:04:00,75.9,75.6,29.90,SSW,195,0.0,1.0,99,0.00,,,0.00,Wunderground v.1.15,2013-09-02 07:04:00,
2013-09-02 03:10:00,75.8,75.2,29.90,SSW,195,0.0,1.0,98,0.00,,,0.00,Wunderground v.1.15,2013-09-02 07:10:00,
2013-09-02 03:16:00,75.6,75.0,29.90,SSW,195,0.0,1.0,98,0.00,,,0.00,Wunderground v.1.15,2013-09-02 07:16:00,
2013-09-02 03:22:00,75.6,75.0,29.90,SSW,195,0.0,1.0,98,0.00,,,0.00,Wunderground v.1.15,2013-09-02 07:22:00,
2013-09-02 03:28:00,75.7,75.4,29.90,SSW,195,0.0,1.0,99,0.00,,,0.00,Wunderground v.1.15,2013-09-02 07:28:00,
2013-09-02 03:34:00,75.7,75.4,29.90,SSW,195,0.0,1.0,99,0.00,,,0.00,Wunderground v.1.15,2013-09-02 07:34:00,
2013-09-02 03:40:00,75.5,74.9,29.90,SSW,195,0.0,1.0,98,0.00,,,0.00,Wunderground v.1.15,2013-09-02 07:40:00,
2013-09-02 03:46:00,75.5,74.9,29.91,SSW,195,0.0,1.0,98,0.00,,,0.00,Wunderground v.1.15,2013-09-02 07:46:00,
2013-09-02 03:52:00,75.8,75.5,29.90,SSW,195,0.0,1.0,99,0.00,,,0.00,Wunderground v.1.15,2013-09-02 07:52:00,
2013-09-02 03:58:00,75.7,75.4,29.90,SSW,195,0.0,1.0,99,0.00,,,0.00,Wunderground v.1.15,2013-09-02 07:58:00,
2013-09-02 04:04:00,75.9,75.6,29.90,SSW,195,0.0,0.0,99,0.00,,,0.00,Wunderground v.1.15,2013-09-02 08:04:00,
2013-09-02 04:10:00,75.9,75.6,29.90,SSW,195,0.0,0.0,99,0.00,,,0.00,Wunderground v.1.15,2013-09-02 08:10:00,
2013-09-02 04:16:00,75.7,75.4,29.90,SSW,195,0.0,0.0,99,0.00,,,0.00,Wunderground v.1.15,2013-09-02 08:16:00,
2013-09-02 04:22:00,75.8,75.5,29.90,SSW,195,0.0,0.0,99,0.00,,,0.00,Wunderground v.1.15,2013-09-02 08:22:00,
2013-09-02 04:28:00,75.9,75.6,29.90,SSW,195,0.0,0.0,99,0.00,,,0.00,Wunderground v.1.15,2013-09-02 08:28:00,
2013-09-02 04:34:00,76.0,75.7,29.89,SSW,195,0.0,0.0,99,0.00,,,0.00,Wunderground v.1.15,2013-09-02 08:34:00,
2013-09-02 04:40:00,75.8,75.5,29.89,SSW,195,0.0,0.0,99,0.00,,,0.00,Wunderground v.1.15,2013-09-02 08:40:00,
2013-09-02 04:46:00,75.8,75.5,29.89,SSW,195,0.0,0.0,99,0.00,,,0.00,Wunderground v.1.15,2013-09-02 08:46:00,
2013-09-02 04:52:00,76.0,75.7,29.89,SSW,195,0.0,0.0,99,0.00,,,0.00,Wunderground v.1.15,2013-09-02 08:52:00,
2013-09-02 04:58:00,76.0,75.7,29.89,East,89,0.0,0.0,99,0.00,,,0.00,Wunderground v.1.15,2013-09-02 08:58:00,
2013-09-02 05:04:00,76.0,75.7,29.89,East,88,0.0,0.0,99,0.00,,,0.00,Wunderground v.1.15,2013-09-02 09:04:00,
2013-09-02 05:10:00,76.0,75.7,29.89,East,88,0.0,0.0,99,0.00,,,0.00,Wunderground v.1.15,2013-09-02 09:10:00,
2013-09-02 05:16:00,75.9,75.6,29.89,East,88,0.0,0.0,99,0.00,,,0.00,Wunderground v.1.15,2013-09-02 09:16:00,
2013-09-02 05:22:00,75.7,75.1,29.89,East,88,0.0,0.0,98,0.00,,,0.00,Wunderground v.1.15,2013-09-02 09:22:00,
2013-09-02 05:28:00,75.7,75.4,29.90,East,88,0.0,0.0,99,0.00,,,0.00,Wunderground v.1.15,2013-09-02 09:28:00,
2013-09-02 05:34:00,75.7,75.4,29.90,East,88,0.0,0.0,99,0.00,,,0.00,Wunderground v.1.15,2013-09-02 09:34:00,
2013-09-02 05:40:00,75.5,75.2,29.90,East,88,0.0,0.0,99,0.00,,,0.00,Wunderground v.1.15,2013-09-02 09:40:00,
2013-09-02 05:46:00,75.5,75.2,29.90,East,88,0.0,0.0,99,0.00,,,0.00,Wunderground v.1.15,2013-09-02 09:46:00,
2013-09-02 05:52:00,75.5,75.2,29.90,East,88,0.0,0.0,99,0.00,,,0.00,Wunderground v.1.15,2013-09-02 09:52:00,
2013-09-02 05:58:00,75.4,75.1,29.91,East,88,0.0,0.0,99,0.00,,,0.00,Wunderground v.1.15,2013-09-02 09:58:00,
2013-09-02 06:04:00,75.5,75.2,29.91,East,88,0.0,0.0,99,0.00,,,0.00,Wunderground v.1.15,2013-09-02 10:04:00,
2013-09-02 06:10:00,75.4,75.1,29.91,East,88,0.0,0.0,99,0.00,,,0.00,Wunderground v.1.15,2013-09-02 10:10:00,
2013-09-02 06:16:00,75.2,74.9,29.91,East,88,0.0,0.0,99,0.00,,,0.00,Wunderground v.1.15,2013-09-02 10:16:00,
2013-09-02 06:22:00,75.3,75.0,29.91,East,88,0.0,0.0,99,0.00,,,0.00,Wunderground v.1.15,2013-09-02 10:22:00,
2013-09-02 06:28:00,75.4,75.1,29.92,East,88,0.0,0.0,99,0.00,,,0.00,Wunderground v.1.15,2013-09-02 10:28:00,
2013-09-02 06:34:00,75.4,75.1,29.91,East,88,0.0,0.0,99,0.00,,,0.00,Wunderground v.1.15,2013-09-02 10:34:00,
2013-09-02 06:40:00,75.3,75.0,29.92,East,88,0.0,0.0,99,0.00,,,0.00,Wunderground v.1.15,2013-09-02 10:40:00,
2013-09-02 06:46:00,75.5,75.2,29.92,East,88,0.0,0.0,99,0.00,,,0.00,Wunderground v.1.15,2013-09-02 10:46:00,
2013-09-02 06:52:00,75.6,75.3,29.92,East,88,0.0,0.0,99,0.00,,,0.00,Wunderground v.1.15,2013-09-02 10:52:00,
2013-09-02 06:58:00,75.6,75.3,29.92,East,88,0.0,0.0,99,0.00,,,0.00,Wunderground v.1.15,2013-09-02 10:58:00,
2013-09-02 07:04:00,75.7,75.4,29.92,East,88,0.0,0.0,99,0.00,,,0.00,Wunderground v.1.15,2013-09-02 11:04:00,
2013-09-02 07:10:00,75.7,75.4,29.92,East,88,0.0,0.0,99,0.00,,,0.00,Wunderground v.1.15,2013-09-02 11:10:00,
2013-09-02 07:16:00,75.8,75.5,29.93,East,88,0.0,0.0,99,0.00,,,0.00,Wunderground v.1.15,2013-09-02 11:16:00,
2013-09-02 07:22:00,75.8,75.5,29.93,East,88,0.0,0.0,99,0.00,,,0.00,Wunderground v.1.15,2013-09-02 11:22:00,
2013-09-02 07:30:00,75.9,75.6,29.93,East,88,0.0,0.0,99,0.00,,,0.00,Wunderground v.1.15,2013-09-02 11:30:00,
2013-09-02 07:36:00,75.9,75.6,29.94,East,88,0.0,0.0,99,0.00,,,0.00,Wunderground v.1.15,2013-09-02 11:36:00,
2013-09-02 07:42:00,76.0,75.7,29.94,East,88,0.0,0.0,99,0.00,,,0.00,Wunderground v.1.15,2013-09-02 11:42:00,
2013-09-02 07:48:00,76.2,75.9,29.94,East,88,0.0,0.0,99,0.00,,,0.00,Wunderground v.1.15,2013-09-02 11:48:00,
2013-09-02 07:54:00,76.5,76.2,29.94,East,88,0.0,0.0,99,0.00,,,0.00,Wunderground v.1.15,2013-09-02 11:54:00,
2013-09-02 08:00:00,76.8,76.5,29.94,East,88,0.0,0.0,99,0.00,,,0.00,Wunderground v.1.15,2013-09-02 12:00:00,
2013-09-02 08:06:00,77.4,77.1,29.94,East,88,0.0,0.0,99,0.00,,,0.00,Wunderground v.1.15,2013-09-02 12:06:00,
2013-09-02 08:12:00,78.0,77.7,29.95,East,88,0.0,0.0,99,0.00,,,0.00,Wunderground v.1.15,2013-09-02 12:12:00,
2013-09-02 08:18:00,78.9,78.0,29.95,East,88,0.0,0.0,97,0.00,,,0.00,Wunderground v.1.15,2013-09-02 12:18:00,
2013-09-02 08:24:00,79.4,77.5,29.95,East,88,0.0,0.0,94,0.00,,,0.00,Wunderground v.1.15,2013-09-02 12:24:00,
2013-09-02 08:30:00,80.7,78.2,29.95,East,88,0.0,0.0,92,0.00,,,0.00,Wunderground v.1.15,2013-09-02 12:30:00,
2013-09-02 08:36:00,81.7,78.5,29.95,East,88,0.0,0.0,90,0.00,,,0.00,Wunderground v.1.15,2013-09-02 12:36:00,
2013-09-02 08:42:00,82.7,78.1,29.95,East,88,0.0,0.0,86,0.00,,,0.00,Wunderground v.1.15,2013-09-02 12:42:00,
2013-09-02 08:48:00,83.7,78.3,29.95,East,88,0.0,0.0,84,0.00,,,0.00,Wunderground v.1.15,2013-09-02 12:48:00,
2013-09-02 08:54:00,84.5,78.0,29.95,SSW,194,0.0,0.0,81,0.00,,,0.00,Wunderground v.1.15,2013-09-02 12:54:00,
2013-09-02 09:00:00,85.2,77.9,29.95,SSE,155,0.0,1.0,79,0.00,,,0.00,Wunderground v.1.15,2013-09-02 13:00:00,
2013-09-02 09:06:00,85.4,77.8,29.95,South,173,1.0,1.0,78,0.00,,,0.00,Wunderground v.1.15,2013-09-02 13:06:00,
2013-09-02 09:12:00,86.1,78.0,29.95,WNW,283,0.0,1.0,77,0.00,,,0.00,Wunderground v.1.15,2013-09-02 13:12:00,
2013-09-02 09:18:00,86.1,78.0,29.95,East,94,0.0,1.0,77,0.00,,,0.00,Wunderground v.1.15,2013-09-02 13:18:00,
2013-09-02 09:24:00,86.5,78.0,29.96,SSW,198,1.0,2.0,76,0.00,,,0.00,Wunderground v.1.15,2013-09-02 13:24:00,
2013-09-02 09:30:00,86.9,78.0,29.96,SSW,210,1.0,1.0,75,0.00,,,0.00,Wunderground v.1.15,2013-09-02 13:30:00,
2013-09-02 09:36:00,87.3,77.6,29.96,SE,124,0.0,1.0,73,0.00,,,0.00,Wunderground v.1.15,2013-09-02 13:36:00,
2013-09-02 09:42:00,87.2,77.5,29.96,WSW,240,0.0,1.0,73,0.00,,,0.00,Wunderground v.1.15,2013-09-02 13:42:00,
2013-09-02 09:48:00,86.9,78.0,29.96,SSE,153,1.0,1.0,75,0.00,,,0.00,Wunderground v.1.15,2013-09-02 13:48:00,
2013-09-02 09:54:00,87.8,77.6,29.96,SSE,149,1.0,1.0,72,0.00,,,0.00,Wunderground v.1.15,2013-09-02 13:54:00,
2013-09-02 10:00:00,88.4,78.2,29.96,SE,144,1.0,3.0,72,0.00,,,0.00,Wunderground v.1.15,2013-09-02 14:00:00,
2013-09-02 10:06:00,88.0,77.8,29.97,ESE,108,2.0,3.0,72,0.00,,,0.00,Wunderground v.1.15,2013-09-02 14:06:00,
2013-09-02 10:12:00,86.6,77.3,29.97,SSE,148,2.0,4.0,74,0.00,,,0.00,Wunderground v.1.15,2013-09-02 14:12:00,
2013-09-02 10:18:00,86.8,76.3,29.97,SSE,153,3.0,4.0,71,0.00,,,0.00,Wunderground v.1.15,2013-09-02 14:18:00,
2013-09-02 10:24:00,88.0,77.4,29.97,ESE,113,3.0,4.0,71,0.00,,,0.00,Wunderground v.1.15,2013-09-02 14:24:00,
2013-09-02 10:30:00,87.7,77.5,29.97,South,187,3.0,3.0,72,0.00,,,0.00,Wunderground v.1.15,2013-09-02 14:30:00,
2013-09-02 10:36:00,87.9,76.9,29.97,SSW,198,1.0,3.0,70,0.00,,,0.00,Wunderground v.1.15,2013-09-02 14:36:00,
2013-09-02 10:42:00,88.1,76.6,29.98,SSW,204,0.0,1.0,69,0.00,,,0.00,Wunderground v.1.15,2013-09-02 14:42:00,
2013-09-02 10:48:00,87.6,76.6,29.98,WSW,238,1.0,1.0,70,0.00,,,0.00,Wunderground v.1.15,2013-09-02 14:48:00,
2013-09-02 10:54:00,87.3,76.3,29.98,ESE,113,0.0,2.0,70,0.00,,,0.00,Wunderground v.1.15,2013-09-02 14:54:00,
2013-09-02 11:00:00,88.4,76.0,29.98,WSW,257,1.0,2.0,67,0.00,,,0.00,Wunderground v.1.15,2013-09-02 15:00:00,
2013-09-02 11:06:00,89.4,76.1,29.98,NW,308,1.0,2.0,65,0.00,,,0.00,Wunderground v.1.15,2013-09-02 15:06:00,
2013-09-02 11:12:00,89.1,76.3,29.98,South,182,1.0,2.0,66,0.00,,,0.00,Wunderground v.1.15,2013-09-02 15:12:00,
2013-09-02 11:18:00,88.8,75.0,29.98,SSW,203,1.0,2.0,64,0.00,,,0.00,Wunderground v.1.15,2013-09-02 15:18:00,
2013-09-02 11:24:00,90.0,75.2,29.98,East,91,1.0,1.0,62,0.00,,,0.00,Wunderground v.1.15,2013-09-02 15:24:00,
2013-09-02 11:30:00,90.1,74.8,29.98,WNW,291,1.0,3.0,61,0.00,,,0.00,Wunderground v.1.15,2013-09-02 15:30:00,
2013-09-02 11:36:00,89.1,74.9,29.98,WNW,290,2.0,3.0,63,0.00,,,0.00,Wunderground v.1.15,2013-09-02 15:36:00,
2013-09-02 11:42:00,89.3,75.0,29.97,West,269,2.0,2.0,63,0.00,,,0.00,Wunderground v.1.15,2013-09-02 15:42:00,
2013-09-02 11:48:00,88.3,73.6,29.97,West,272,2.0,2.0,62,0.00,,,0.00,Wunderground v.1.15,2013-09-02 15:48:00,
2013-09-02 11:54:00,89.1,75.8,29.97,SW,220,1.0,1.0,65,0.00,,,0.00,Wunderground v.1.15,2013-09-02 15:54:00,
2013-09-02 12:00:00,90.8,73.5,29.97,SE,129,1.0,3.0,57,0.00,,,0.00,Wunderground v.1.15,2013-09-02 16:00:00,
2013-09-02 12:06:00,90.7,73.4,29.97,ESE,116,3.0,3.0,57,0.00,,,0.00,Wunderground v.1.15,2013-09-02 16:06:00,
2013-09-02 12:12:00,90.6,72.8,29.97,ENE,68,3.0,3.0,56,0.00,,,0.00,Wunderground v.1.15,2013-09-02 16:12:00,
2013-09-02 12:18:00,92.1,74.7,29.96,North,10,2.0,3.0,57,0.00,,,0.00,Wunderground v.1.15,2013-09-02 16:18:00,
2013-09-02 12:24:00,92.4,73.9,29.95,SSE,168,1.0,3.0,55,0.00,,,0.00,Wunderground v.1.15,2013-09-02 16:24:00,
2013-09-02 12:30:00,94.0,74.3,29.95,South,176,1.0,1.0,53,0.00,,,0.00,Wunderground v.1.15,2013-09-02 16:30:00,
2013-09-02 12:36:00,93.5,73.8,29.95,ESE,110,1.0,2.0,53,0.00,,,0.00,Wunderground v.1.15,2013-09-02 16:36:00,
2013-09-02 12:42:00,91.9,72.9,29.96,ENE,70,2.0,2.0,54,0.00,,,0.00,Wunderground v.1.15,2013-09-02 16:42:00,
2013-09-02 12:48:00,92.0,74.1,29.96,WSW,238,1.0,2.0,56,0.00,,,0.00,Wunderground v.1.15,2013-09-02 16:48:00,
2013-09-02 12:54:00,92.6,73.0,29.96,SE,146,1.0,1.0,53,0.00,,,0.00,Wunderground v.1.15,2013-09-02 16:54:00,
2013-09-02 13:00:00,93.3,73.6,29.96,WNW,292,1.0,1.0,53,0.00,,,0.00,Wunderground v.1.15,2013-09-02 17:00:00,
2013-09-02 13:06:00,93.3,73.6,29.95,WNW,299,1.0,1.0,53,0.00,,,0.00,Wunderground v.1.15,2013-09-02 17:06:00,
2013-09-02 13:12:00,93.6,73.9,29.95,WNW,282,1.0,3.0,53,0.00,,,0.00,Wunderground v.1.15,2013-09-02 17:12:00,
2013-09-02 13:18:00,92.6,74.1,29.95,NNW,330,2.0,4.0,55,0.00,,,0.00,Wunderground v.1.15,2013-09-02 17:18:00,
2013-09-02 13:24:00,91.7,72.7,29.95,NW,310,2.0,3.0,54,0.00,,,0.00,Wunderground v.1.15,2013-09-02 17:24:00,
2013-09-02 13:30:00,91.0,72.0,29.95,SW,216,1.0,1.0,54,0.00,,,0.00,Wunderground v.1.15,2013-09-02 17:30:00,
2013-09-02 13:36:00,91.0,72.6,29.95,West,264,1.0,2.0,55,0.00,,,0.00,Wunderground v.1.15,2013-09-02 17:36:00,
2013-09-02 13:42:00,90.4,72.6,29.94,West,271,2.0,3.0,56,0.00,,,0.00,Wunderground v.1.15,2013-09-02 17:42:00,
2013-09-02 13:48:00,89.6,72.9,29.94,WSW,240,2.0,3.0,58,0.00,,,0.00,Wunderground v.1.15,2013-09-02 17:48:00,
2013-09-02 13:54:00,89.3,73.1,29.95,WSW,250,2.0,4.0,59,0.00,,,0.00,Wunderground v.1.15,2013-09-02 17:54:00,
2013-09-02 14:00:00,89.2,73.5,29.95,SW,229,2.0,3.0,60,0.00,,,0.00,Wunderground v.1.15,2013-09-02 18:00:00,
2013-09-02 14:06:00,85.7,74.4,29.96,South,191,5.0,12.0,69,0.00,,,0.00,Wunderground v.1.15,2013-09-02 18:06:00,
2013-09-02 14:12:00,82.3,72.8,29.96,West,263,8.0,13.0,73,0.00,,,0.00,Wunderground v.1.15,2013-09-02 18:12:00,
2013-09-02 14:18:00,81.6,72.9,29.95,SW,234,7.0,13.0,75,0.00,,,0.00,Wunderground v.1.15,2013-09-02 18:18:00,
2013-09-02 14:24:00,80.6,72.7,29.94,WSW,249,6.0,7.0,77,0.00,,,0.00,Wunderground v.1.15,2013-09-02 18:24:00,
2013-09-02 14:30:00,79.4,72.3,29.96,WSW,253,6.0,6.0,79,0.31,,,0.03,Wunderground v.1.15,2013-09-02 18:30:00,
2013-09-02 14:36:00,77.6,72.4,29.98,SSW,210,5.0,6.0,84,0.23,,,0.06,Wunderground v.1.15,2013-09-02 18:36:00,
2013-09-02 14:42:00,76.6,72.4,29.97,South,181,5.0,5.0,87,0.25,,,0.09,Wunderground v.1.15,2013-09-02 18:42:00,
2013-09-02 14:48:00,76.1,72.6,29.98,South,169,4.0,6.0,89,0.12,,,0.10,Wunderground v.1.15,2013-09-02 18:48:00,
2013-09-02 14:54:00,76.0,72.9,29.97,SW,215,3.0,6.0,90,0.08,,,0.10,Wunderground v.1.15,2013-09-02 18:54:00,
2013-09-02 15:00:00,76.2,73.4,29.97,SSW,207,3.0,3.0,91,0.04,,,0.10,Wunderground v.1.15,2013-09-02 19:00:00,
2013-09-02 15:06:00,76.3,73.5,29.97,South,176,1.0,3.0,91,0.00,,,0.10,Wunderground v.1.15,2013-09-02 19:06:00,
2013-09-02 15:12:00,76.5,74.0,29.97,SSE,156,0.0,0.0,92,0.00,,,0.10,Wunderground v.1.15,2013-09-02 19:12:00,
2013-09-02 15:18:00,76.6,74.4,29.96,NE,34,0.0,3.0,93,0.00,,,0.11,Wunderground v.1.15,2013-09-02 19:18:00,
2013-09-02 15:24:00,76.5,74.0,29.95,North,356,1.0,1.0,92,0.00,,,0.11,Wunderground v.1.15,2013-09-02 19:24:00,
2013-09-02 15:30:00,76.5,74.3,29.95,NE,35,0.0,0.0,93,0.00,,,0.11,Wunderground v.1.15,2013-09-02 19:30:00,
2013-09-02 15:36:00,76.5,74.6,29.95,NW,317,1.0,2.0,94,0.19,,,0.13,Wunderground v.1.15,2013-09-02 19:36:00,
2013-09-02 15:42:00,76.4,74.5,29.96,NE,51,1.0,2.0,94,0.15,,,0.15,Wunderground v.1.15,2013-09-02 19:42:00,
2013-09-02 15:48:00,76.2,74.3,29.95,ENE,61,1.0,3.0,94,0.10,,,0.16,Wunderground v.1.15,2013-09-02 19:48:00,
2013-09-02 15:54:00,76.1,74.2,29.95,East,87,1.0,2.0,94,0.16,,,0.17,Wunderground v.1.15,2013-09-02 19:54:00,
2013-09-02 16:00:00,75.9,74.0,29.95,NNE,30,1.0,1.0,94,0.13,,,0.18,Wunderground v.1.15,2013-09-02 20:00:00,
2013-09-02 16:06:00,76.0,74.1,29.95,East,88,0.0,1.0,94,0.06,,,0.18,Wunderground v.1.15,2013-09-02 20:06:00,
2013-09-02 16:12:00,76.1,74.2,29.95,WNW,293,0.0,1.0,94,0.05,,,0.19,Wunderground v.1.15,2013-09-02 20:12:00,
2013-09-02 16:18:00,76.3,74.4,29.95,NW,319,1.0,3.0,94,0.05,,,0.19,Wunderground v.1.15,2013-09-02 20:18:00,
2013-09-02 16:24:00,76.4,74.2,29.94,WNW,288,3.0,5.0,93,0.04,,,0.19,Wunderground v.1.15,2013-09-02 20:24:00,
2013-09-02 16:30:00,76.4,74.5,29.94,NW,304,3.0,3.0,94,0.00,,,0.19,Wunderground v.1.15,2013-09-02 20:30:00,
2013-09-02 16:36:00,76.6,74.4,29.94,West,273,2.0,3.0,93,0.00,,,0.19,Wunderground v.1.15,2013-09-02 20:36:00,
2013-09-02 16:42:00,76.8,74.3,29.94,West,273,1.0,1.0,92,0.00,,,0.19,Wunderground v.1.15,2013-09-02 20:42:00,
2013-09-02 16:48:00,76.8,74.6,29.94,NW,317,1.0,2.0,93,0.00,,,0.19,Wunderground v.1.15,2013-09-02 20:48:00,
2013-09-02 16:54:00,76.9,74.7,29.94,NW,317,3.0,4.0,93,0.00,,,0.19,Wunderground v.1.15,2013-09-02 20:54:00,
2013-09-02 17:00:00,77.0,74.5,29.94,NW,311,3.0,3.0,92,0.00,,,0.19,Wunderground v.1.15,2013-09-02 21:00:00,
2013-09-02 17:06:00,77.2,75.0,29.93,NNW,342,2.0,4.0,93,0.00,,,0.19,Wunderground v.1.15,2013-09-02 21:06:00,
2013-09-02 17:12:00,77.4,74.6,29.93,NW,315,3.0,3.0,91,0.00,,,0.19,Wunderground v.1.15,2013-09-02 21:12:00,
2013-09-02 17:18:00,77.7,74.5,29.93,NW,320,3.0,3.0,90,0.00,,,0.19,Wunderground v.1.15,2013-09-02 21:18:00,
2013-09-02 17:24:00,77.9,74.4,29.93,WNW,295,2.0,3.0,89,0.00,,,0.19,Wunderground v.1.15,2013-09-02 21:24:00,
2013-09-02 17:30:00,78.0,74.2,29.92,WNW,302,2.0,3.0,88,0.00,,,0.19,Wunderground v.1.15,2013-09-02 21:30:00,
2013-09-02 17:36:00,78.3,74.8,29.92,NW,306,1.0,3.0,89,0.00,,,0.19,Wunderground v.1.15,2013-09-02 21:36:00,
2013-09-02 17:42:00,78.3,74.5,29.92,WNW,298,2.0,3.0,88,0.00,,,0.19,Wunderground v.1.15,2013-09-02 21:42:00,
2013-09-02 17:48:00,78.3,74.1,29.92,WNW,301,2.0,3.0,87,0.00,,,0.19,Wunderground v.1.15,2013-09-02 21:48:00,
2013-09-02 17:54:00,78.3,74.8,29.91,NNW,339,2.0,3.0,89,0.00,,,0.19,Wunderground v.1.15,2013-09-02 21:54:00,
2013-09-02 18:00:00,78.4,74.5,29.91,NNW,334,3.0,4.0,88,0.00,,,0.19,Wunderground v.1.15,2013-09-02 22:00:00,
2013-09-02 18:06:00,78.5,74.6,29.91,NE,36,2.0,4.0,88,0.00,,,0.19,Wunderground v.1.15,2013-09-02 22:06:00,
2013-09-02 18:12:00,78.5,74.6,29.91,North,349,1.0,2.0,88,0.00,,,0.19,Wunderground v.1.15,2013-09-02 22:12:00,
2013-09-02 18:18:00,78.5,74.6,29.91,North,355,2.0,5.0,88,0.00,,,0.19,Wunderground v.1.15,2013-09-02 22:18:00,
2013-09-02 18:24:00,78.5,74.6,29.91,NNW,330,2.0,3.0,88,0.00,,,0.19,Wunderground v.1.15,2013-09-02 22:24:00,
2013-09-02 18:30:00,78.5,75.0,29.90,NNW,332,2.0,2.0,89,0.00,,,0.19,Wunderground v.1.15,2013-09-02 22:30:00,
2013-09-02 18:36:00,78.5,74.6,29.91,NNW,330,1.0,2.0,88,0.00,,,0.19,Wunderground v.1.15,2013-09-02 22:36:00,
2013-09-02 18:42:00,78.5,74.6,29.90,NNW,335,2.0,2.0,88,0.00,,,0.19,Wunderground v.1.15,2013-09-02 22:42:00,
2013-09-02 18:48:00,78.5,74.6,29.91,North,354,2.0,4.0,88,0.00,,,0.19,Wunderground v.1.15,2013-09-02 22:48:00,
2013-09-02 18:54:00,78.5,74.3,29.91,NNW,343,1.0,1.0,87,0.00,,,0.19,Wunderground v.1.15,2013-09-02 22:54:00,
2013-09-02 19:00:00,78.5,74.3,29.91,NW,321,0.0,1.0,87,0.00,,,0.19,Wunderground v.1.15,2013-09-02 23:00:00,
2013-09-02 19:06:00,78.5,74.3,29.91,NNW,328,0.0,1.0,87,0.00,,,0.19,Wunderground v.1.15,2013-09-02 23:06:00,
2013-09-02 19:12:00,78.5,74.3,29.91,NNW,328,0.0,0.0,87,0.00,,,0.19,Wunderground v.1.15,2013-09-02 23:12:00,
2013-09-02 19:18:00,78.3,74.1,29.91,NNW,331,0.0,0.0,87,0.00,,,0.19,Wunderground v.1.15,2013-09-02 23:18:00,
2013-09-02 19:24:00,78.1,73.9,29.91,NNW,331,0.0,0.0,87,0.00,,,0.19,Wunderground v.1.15,2013-09-02 23:24:00,
2013-09-02 19:30:00,78.0,73.8,29.90,NNW,331,0.0,0.0,87,0.00,,,0.19,Wunderground v.1.15,2013-09-02 23:30:00,
2013-09-02 19:36:00,77.9,73.7,29.90,NNW,331,0.0,0.0,87,0.00,,,0.19,Wunderground v.1.15,2013-09-02 23:36:00,
2013-09-02 19:42:00,77.8,73.6,29.90,NNW,331,0.0,0.0,87,0.00,,,0.19,Wunderground v.1.15,2013-09-02 23:42:00,
2013-09-02 19:48:00,77.7,73.5,29.90,NW,319,0.0,0.0,87,0.00,,,0.19,Wunderground v.1.15,2013-09-02 23:48:00,
2013-09-02 19:54:00,77.9,73.7,29.91,NW,316,0.0,0.0,87,0.00,,,0.19,Wunderground v.1.15,2013-09-02 23:54:00,
2013-09-02 20:00:00,77.8,73.6,29.91,NW,316,0.0,0.0,87,0.00,,,0.19,Wunderground v.1.15,2013-09-03 00:00:00,
2013-09-02 20:06:00,77.5,73.7,29.91,NW,316,0.0,0.0,88,0.00,,,0.19,Wunderground v.1.15,2013-09-03 00:06:00,
2013-09-02 20:12:00,77.3,73.8,29.91,NW,316,0.0,0.0,89,0.00,,,0.19,Wunderground v.1.15,2013-09-03 00:12:00,
2013-09-02 20:18:00,77.1,73.9,29.91,NW,316,0.0,0.0,90,0.00,,,0.19,Wunderground v.1.15,2013-09-03 00:18:00,
2013-09-02 20:24:00,77.2,74.0,29.91,NW,316,0.0,0.0,90,0.00,,,0.19,Wunderground v.1.15,2013-09-03 00:24:00,
2013-09-02 20:30:00,76.9,74.1,29.91,NW,316,0.0,0.0,91,0.00,,,0.19,Wunderground v.1.15,2013-09-03 00:30:00,
2013-09-02 20:36:00,76.7,74.2,29.91,NW,316,0.0,0.0,92,0.00,,,0.19,Wunderground v.1.15,2013-09-03 00:36:00,
2013-09-02 20:42:00,76.6,73.8,29.92,NW,316,0.0,0.0,91,0.00,,,0.19,Wunderground v.1.15,2013-09-03 00:42:00,
2013-09-02 20:48:00,76.5,74.0,29.92,NW,316,0.0,0.0,92,0.00,,,0.19,Wunderground v.1.15,2013-09-03 00:48:00,
2013-09-02 20:54:00,76.5,74.0,29.92,NW,316,0.0,0.0,92,0.00,,,0.19,Wunderground v.1.15,2013-09-03 00:54:00,
2013-09-02 21:00:00,76.7,74.2,29.92,NW,316,0.0,0.0,92,0.00,,,0.19,Wunderground v.1.15,2013-09-03 01:00:00,
2013-09-02 21:06:00,76.7,74.2,29.93,NW,316,0.0,0.0,92,0.00,,,0.19,Wunderground v.1.15,2013-09-03 01:06:00,
2013-09-02 21:12:00,76.7,74.2,29.93,SE,144,0.0,1.0,92,0.00,,,0.19,Wunderground v.1.15,2013-09-03 01:12:00,
2013-09-02 21:18:00,76.6,74.4,29.93,SE,143,0.0,1.0,93,0.00,,,0.19,Wunderground v.1.15,2013-09-03 01:18:00,
2013-09-02 21:24:00,76.6,74.4,29.93,ESE,119,0.0,1.0,93,0.00,,,0.19,Wunderground v.1.15,2013-09-03 01:24:00,
2013-09-02 21:30:00,76.6,74.7,29.94,SSE,158,1.0,1.0,94,0.00,,,0.19,Wunderground v.1.15,2013-09-03 01:30:00,
2013-09-02 21:36:00,76.6,74.7,29.94,SE,129,1.0,2.0,94,0.00,,,0.19,Wunderground v.1.15,2013-09-03 01:36:00,
2013-09-02 21:42:00,76.6,74.4,29.94,ESE,113,1.0,2.0,93,0.00,,,0.19,Wunderground v.1.15,2013-09-03 01:42:00,
2013-09-02 21:48:00,76.5,74.3,29.94,ESE,114,0.0,2.0,93,0.00,,,0.19,Wunderground v.1.15,2013-09-03 01:48:00,
2013-09-02 21:54:00,76.5,74.3,29.94,ESE,115,0.0,1.0,93,0.00,,,0.19,Wunderground v.1.15,2013-09-03 01:54:00,
2013-09-02 22:00:00,76.5,74.6,29.94,ESE,120,1.0,1.0,94,0.00,,,0.19,Wunderground v.1.15,2013-09-03 02:00:00,
2013-09-02 22:06:00,76.3,74.4,29.94,ESE,120,0.0,1.0,94,0.00,,,0.19,Wunderground v.1.15,2013-09-03 02:06:00,
2013-09-02 22:12:00,76.1,74.2,29.94,ESE,120,0.0,0.0,94,0.00,,,0.19,Wunderground v.1.15,2013-09-03 02:12:00,
2013-09-02 22:18:00,75.9,74.4,29.94,ESE,120,0.0,0.0,95,0.00,,,0.19,Wunderground v.1.15,2013-09-03 02:18:00,
2013-09-02 22:24:00,75.8,74.3,29.94,ESE,120,0.0,0.0,95,0.00,,,0.19,Wunderground v.1.15,2013-09-03 02:24:00,
2013-09-02 22:30:00,75.8,74.3,29.94,ESE,120,0.0,0.0,95,0.00,,,0.19,Wunderground v.1.15,2013-09-03 02:30:00,
2013-09-02 22:36:00,75.6,74.1,29.94,ESE,120,0.0,0.0,95,0.00,,,0.19,Wunderground v.1.15,2013-09-03 02:36:00,
2013-09-02 22:42:00,75.5,74.0,29.94,ESE,120,0.0,0.0,95,0.00,,,0.19,Wunderground v.1.15,2013-09-03 02:42:00,
2013-09-02 22:48:00,75.3,73.8,29.94,ESE,120,0.0,0.0,95,0.00,,,0.19,Wunderground v.1.15,2013-09-03 02:48:00,
2013-09-02 22:54:00,75.1,73.9,29.93,ESE,120,0.0,0.0,96,0.00,,,0.19,Wunderground v.1.15,2013-09-03 02:54:00,
2013-09-02 23:00:00,75.2,74.0,29.94,ESE,120,0.0,0.0,96,0.00,,,0.19,Wunderground v.1.15,2013-09-03 03:00:00,
2013-09-02 23:06:00,75.2,74.0,29.94,ESE,120,0.0,0.0,96,0.00,,,0.19,Wunderground v.1.15,2013-09-03 03:06:00,
2013-09-02 23:12:00,75.3,73.8,29.94,ESE,120,0.0,0.0,95,0.00,,,0.19,Wunderground v.1.15,2013-09-03 03:12:00,
2013-09-02 23:18:00,75.1,73.9,29.93,ESE,120,0.0,0.0,96,0.00,,,0.19,Wunderground v.1.15,2013-09-03 03:18:00,
2013-09-02 23:24:00,75.1,73.9,29.94,ESE,120,0.0,0.0,96,0.00,,,0.19,Wunderground v.1.15,2013-09-03 03:24:00,
2013-09-02 23:30:00,75.0,73.8,29.93,ESE,120,0.0,0.0,96,0.00,,,0.19,Wunderground v.1.15,2013-09-03 03:30:00,
2013-09-02 23:36:00,74.8,73.6,29.93,ESE,120,0.0,0.0,96,0.00,,,0.19,Wunderground v.1.15,2013-09-03 03:36:00,
2013-09-02 23:42:00,74.8,73.9,29.93,ESE,120,0.0,0.0,97,0.00,,,0.19,Wunderground v.1.15,2013-09-03 03:42:00,
2013-09-02 23:48:00,74.6,73.4,29.93,ESE,120,0.0,0.0,96,0.00,,,0.19,Wunderground v.1.15,2013-09-03 03:48:00,
2013-09-02 23:54:00,74.5,73.6,29.93,ESE,120,0.0,0.0,97,0.00,,,0.19,Wunderground v.1.15,2013-09-03 03:54:00,